Temp
-5 -5 -5 -5 -5 -5 -5 -5 -5 -5 -4 -4 -4 -4 -4 -4 -3 -3 -2 -1 -2 -0 0 0 -0 1 2 6 6 9 10 14 15 15 16 15 15 16
-5 -5 -5 -5 -5 -5 -5 -5 -6 -6 -5 -5 -5 -5 -4 -4 -3 -3 -2 -2 -1 -0 0 0 0 1 3 6 7 9 11 12 14 16 16 15 15 16
-5 -6 -6 -5 -5 -5 -5 -6 -6 -6 -6 -5 -6 -5 -5 -5 -3 -2 -2 -2 -1 -1 -0 0 0 1 2 6 7 11 11 14 14 15 16 16 15 16
-6 -6 -6 -6 -6 -5 -5 -5 -5 -5 -7 -6 -6 -6 -6 -4 -4 -3 -2 -2 -2 -1 -0 0 1 1 2 5 6 12 10 10 13 14 16 16 16 15
-6 -6 -6 -6 -6 -5 -6 -5 -5 -5 -6 -7 -7 -6 -6 -4 -4 -3 -2 -2 -1 -1 0 0 1 1 1 5 5 9 10 11 11 13 14 15 16 16
-6 -6 -6 -6 -5 -5 -5 -5 -5 -5 -6 -6 -6 -6 -7 -5 -4 -5 -4 -3 -2 -1 0 1 1 1 1 3 5 6 10 10 11 12 13 14 15 15
-6 -6 -6 -6 -5 -5 -5 -5 -5 -5 -6 -6 -6 -6 -7 -5 -5 -5 -5 -4 -2 -1 -0 0 0 1 1 3 5 8 11 11 11 12 12 13 14 15
-7 -6 -6 -6 -6 -6 -5 -5 -5 -5 -5 -5 -5 -6 -6 -6 -5 -4 -4 -3 -1 -1 -1 -0 0 1 2 2 4 7 9 10 11 11 12 13 14 14
-7 -7 -7 -6 -6 -5 -5 -5 -5 -5 -5 -5 -5 -5 -5 -4 -4 -4 -4 -3 -2 -1 -1 -1 -0 -0 1 2 3 6 8 9 11 11 12 13 14 14
-7 -7 -6 -6 -5 -5 -5 -5 -5 -4 -4 -4 -4 -4 -4 -4 -4 -4 -4 -3 -2 -1 -1 -0 -0 0 1 2 4 5 7 8 10 11 11 13 14 14
-7 -7 -7 -6 -6 -5 -5 -5 -5 -4 -4 -4 -4 -4 -3 -3 -3 -4 -4 -3 -1 -1 -1 -0 0 1 1 2 3 4 6 8 10 11 11 12 13 14
-7 -7 -7 -6 -6 -5 -5 -5 -5 -4 -4 -3 -3 -3 -3 -3 -3 -3 -3 -2 -1 -1 -1 -0 0 1 1 2 3 5 6 7 10 10 11 11 11 13
-8 -8 -7 -7 -6 -6 -5 -5 -5 -4 -3 -3 -3 -3 -3 -3 -3 -3 -2 -2 -2 -2 -1 -0 0 1 1 1 2 4 6 6 8 9 10 11 11 12
-8 -8 -8 -7 -6 -5 -5 -5 -4 -4 -3 -3 -3 -3 -3 -3 -2 -2 -2 -2 -1 -1 -1 -0 1 1 1 0 1 3 5 6 7 8 9 10 10 11
-8 -8 -6 -6 -6 -5 -5 -5 -4 -4 -4 -4 -3 -3 -3 -3 -2 -2 -2 -2 -2 -1 -0 0 1 1 2 2 1 2 4 4 5 7 8 9 10 11
-7 -7 -7 -7 -6 -6 -5 -5 -5 -5 -4 -4 -3 -3 -3 -2 -2 -2 -2 -2 -2 -2 -1 -0 0 1 1 2 3 1 3 4 4 5 6 7 9 10
-7 -8 -8 -8 -8 -7 -6 -6 -5 -5 -4 -4 -4 -3 -3 -3 -2 -2 -2 -2 -2 -2 -3 -2 -1 1 -0 -0 -0 1 2 2 4 4 6 6 6 8
-8 -11 -11 -10 -10 -10 -9 -8 -7 -5 -5 -4 -4 -3 -4 -3 -3 -3 -2 -2 -3 -2 -2 -2 -1 -1 -1 -1 -1 -1 1 1 2 4 5 6 4 5
-11 -11 -11 -11 -10 -10 -9 -9 -8 -6 -5 -4 -4 -4 -4 -3 -3 -3 -3 -3 -3 -3 -3 -1 -0 -0 -1 -2 -3 -2 -1 -0 1 3 4 5 0 2
-11 -12 -11 -11 -10 -10 -9 -8 -7 -6 -5 -5 -4 -4 -4 -4 -4 -4 -4 -4 -4 -4 -4 -3 -2 -1 -1 -3 -4 -4 -1 -0 1 -1 -2 -1 -1 -0
-11 -10 -10 -10 -10 -9 -8 -7 -7 -6 -6 -5 -5 -4 -4 -4 -4 -5 -4 -4 -4 -4 -4 -4 -4 -3 -3 -3 -4 -5 -3 -2 -2 -1 -2 -2 -2 -2
-10 -10 -9 -9 -9 -8 -8 -7 -6 -6 -5 -5 -5 -5 -4 -5 -4 -4 -4 -4 -5 -5 -4 -4 -3 -3 -4 -4 -5 -5 -5 -3 -2 -2 -1 -0 -0 -2
-9 -9 -9 -9 -8 -8 -7 -7 -7 -6 -6 -5 -5 -5 -5 -5 -5 -5 -5 -5 -5 -5 -5 -4 -4 -4 -5 -5 -5 -5 -5 -5 -4 -5 -5 -3 -1 -1
Height
813 810 807 804 802 799 797 794 791 784 779 777 776 773 771 767 765 762 758 755 753 750 750 750 751 747 740 737 741 744 744 759 768 777 786 797 807 815
811 808 805 802 799 797 794 791 789 786 781 777 774 772 769 765 762 760 758 755 753 749 746 742 743 741 738 743 736 745 749 749 764 774 786 796 806 814
809 806 803 800 796 793 791 787 785 783 779 773 772 769 766 764 760 757 756 754 752 749 746 746 741 740 741 744 741 744 739 751 764 774 785 795 805 814
807 804 801 797 793 789 787 784 781 779 777 772 769 767 765 763 759 756 755 753 752 750 748 747 748 748 747 747 748 739 741 754 766 775 785 795 804 814
805 802 798 794 790 786 783 779 776 774 773 771 768 766 764 762 758 755 754 753 751 748 745 748 746 744 743 741 744 745 750 763 767 774 784 794 804 813
803 799 795 791 786 783 780 776 772 771 770 768 766 764 763 760 757 755 752 753 751 751 748 747 749 748 745 747 745 748 751 763 768 776 784 794 803 813
800 796 793 789 785 781 776 772 769 767 766 764 763 762 762 759 757 755 754 752 752 751 752 752 752 751 752 746 747 748 754 761 771 778 786 794 802 812
798 795 790 786 782 778 773 769 766 764 763 762 761 761 760 759 757 756 754 752 750 750 752 754 756 758 750 752 753 755 758 766 773 779 785 792 801 811
798 794 789 785 779 774 770 766 762 760 759 759 758 757 757 757 755 755 754 753 751 751 751 751 752 754 755 758 756 756 762 768 774 780 784 791 801 810
798 793 788 783 777 773 768 763 759 757 755 754 754 752 753 753 752 753 754 753 752 751 751 751 753 753 753 754 756 759 763 767 770 780 786 793 801 809
797 792 788 782 777 771 766 762 757 754 752 750 749 749 750 751 751 752 753 753 751 752 751 752 753 755 755 756 758 762 765 768 774 781 789 794 801 809
797 792 787 782 776 771 766 761 757 752 749 747 745 745 747 749 749 751 753 753 751 752 752 754 756 757 758 760 761 764 768 771 774 783 792 799 803 808
799 792 787 781 776 771 766 762 757 752 749 746 745 746 747 749 749 749 751 753 752 752 753 755 756 756 757 762 764 765 769 773 779 786 793 799 805 808
801 795 788 782 777 772 767 762 757 753 750 748 747 747 748 749 750 749 751 755 755 755 754 755 758 759 761 764 766 767 770 774 781 786 791 797 804 809
803 797 790 784 778 773 769 764 760 757 754 751 750 750 751 751 753 752 753 755 757 756 757 758 759 761 762 763 766 770 773 776 781 786 791 796 806 814
805 799 793 787 782 778 772 768 765 762 759 756 753 752 753 753 753 755 756 757 757 758 758 759 760 761 763 763 767 770 773 778 786 792 795 799 804 807
809 803 797 791 786 782 778 774 770 767 764 762 759 756 756 757 758 758 757 758 758 761 763 763 763 763 765 769 772 776 778 782 788 793 796 801 807 809
814 810 805 800 796 791 786 781 777 773 770 767 766 764 762 761 763 762 762 761 762 765 766 766 768 769 771 776 780 784 785 788 792 795 796 800 806 812
820 817 813 808 803 798 793 789 784 781 777 773 771 770 769 768 764 765 765 765 766 767 766 768 769 771 775 783 791 790 791 795 795 795 800 803 807 814
826 823 819 814 810 804 799 794 790 787 784 781 778 775 773 771 770 771 772 772 772 772 771 771 773 775 775 783 794 798 798 799 797 801 806 810 814 819
834 829 825 820 816 811 806 801 797 794 791 789 786 785 783 782 782 782 781 778 777 779 779 781 783 783 784 787 795 801 805 805 803 806 812 813 819 827
841 836 831 827 822 817 812 807 803 799 797 794 793 791 789 788 787 786 786 786 787 787 787 788 789 789 790 791 799 804 809 812 812 812 816 816 821 827
846 842 837 832 828 823 818 813 810 806 803 801 798 797 796 794 794 793 794 793 794 794 795 797 797 797 799 802 804 810 813 815 816 817 823 824 824 829
Wind_Speed
16 14 13 11 12 14 14 14 9 7 9 9 7 18 29 24 20 17 17 17 16 14 11 14 9 7 11 9 7 20 23 50 53 55 53 51 51 48
17 15 12 14 14 15 15 15 14 12 6 15 17 25 27 24 17 16 14 15 13 10 10 13 11 7 8 7 7 14 19 32 52 53 52 50 49 48
17 13 14 18 16 18 17 17 14 14 10 20 18 25 22 21 15 12 14 14 9 10 8 8 6 7 4 5 7 27 18 40 49 50 51 49 47 46
16 16 19 17 18 18 17 17 18 19 15 15 18 18 20 15 14 15 15 12 8 8 7 4 2 1 1 7 3 40 34 12 34 43 49 47 46 45
18 18 19 19 21 24 20 20 21 18 14 13 12 12 11 15 15 13 13 9 7 5 6 3 2 2 4 5 3 29 30 21 16 36 44 43 43 43
19 19 18 19 24 19 21 21 17 14 11 12 14 12 10 13 11 12 14 11 9 2 6 2 4 1 4 1 6 17 26 18 15 20 27 41 41 41
21 18 18 20 19 20 21 20 16 14 10 12 10 6 5 4 5 7 11 14 5 3 3 3 4 1 1 3 4 19 25 13 17 19 21 36 39 39
21 22 20 20 22 20 21 16 13 12 12 6 6 5 7 8 7 8 8 5 2 3 1 3 2 3 4 6 7 17 29 22 21 19 20 32 39 38
21 22 21 21 22 22 22 17 12 9 12 13 11 11 10 7 6 6 5 5 5 5 1 3 3 5 5 6 6 14 27 33 28 24 13 35 39 38
20 22 23 25 25 20 21 18 15 10 8 11 14 16 14 10 10 8 6 7 7 1 2 2 3 6 5 5 7 10 16 25 26 24 16 36 35 37
20 23 22 27 25 20 19 18 18 15 10 8 12 13 11 10 8 6 6 4 2 1 2 3 4 8 9 7 4 9 12 19 28 26 22 20 31 35
21 22 24 26 23 20 19 19 16 17 12 7 3 6 7 7 8 10 6 7 1 0 2 3 4 4 4 6 4 10 14 15 26 27 28 25 21 40
21 24 26 25 21 18 19 19 15 11 10 9 9 5 5 7 8 8 8 9 2 1 4 4 5 3 5 5 7 10 16 18 22 25 27 24 21 26
22 24 24 21 20 19 22 20 19 17 15 14 14 10 8 8 5 5 7 8 4 2 5 4 5 5 5 5 5 11 14 17 19 22 24 22 19 18
23 22 22 24 25 25 25 24 24 23 20 18 15 13 10 9 10 10 9 8 7 6 5 5 6 8 8 8 8 10 15 13 16 21 22 22 23 23
27 27 29 29 29 29 30 29 27 25 22 20 18 16 14 12 12 12 14 16 19 18 12 9 11 11 16 16 18 14 19 8 20 25 29 25 22 21
28 31 33 34 33 33 32 30 29 28 26 24 22 19 17 17 15 13 15 17 16 15 20 21 17 19 22 21 21 17 16 22 22 24 27 25 19 19
32 27 27 27 26 27 28 28 28 28 26 25 24 22 20 18 18 19 19 20 18 18 17 17 21 21 23 28 22 20 21 20 20 22 24 26 17 13
31 27 25 27 27 29 28 27 27 26 25 26 24 22 20 19 20 20 19 18 18 19 16 13 10 12 9 5 14 14 21 20 22 21 20 21 21 15
33 28 28 29 30 30 30 28 28 27 25 25 24 23 22 20 20 19 18 16 17 17 22 20 18 14 11 7 9 22 11 21 24 26 29 28 26 19
34 33 32 32 32 31 30 28 27 26 23 22 23 21 20 20 20 20 21 22 20 19 21 21 21 27 28 26 24 28 27 19 24 31 30 28 23 21
33 34 33 32 31 31 30 30 28 27 25 23 20 20 19 18 20 19 19 19 19 19 22 23 22 24 25 26 26 25 28 28 23 19 14 11 11 9
31 31 32 32 32 31 30 30 29 26 23 21 20 18 17 20 20 20 18 19 18 20 21 23 26 28 27 25 27 27 29 29 33 38 38 20 17 31
Wind_Direction
331 327 321 322 322 321 317 318 310 314 314 316 321 319 330 332 334 331 323 321 323 322 321 313 324 313 319 299 278 221 251 185 184 181 180 179 180 177
343 334 334 340 327 326 321 310 301 281 285 301 305 314 325 328 333 323 324 321 327 319 318 315 317 328 315 258 261 212 243 181 180 181 181 180 180 178
343 339 329 332 324 326 322 315 299 304 287 299 301 314 322 332 334 327 332 326 328 313 316 310 321 326 305 225 230 189 88 171 179 182 181 182 181 180
336 331 333 336 330 326 319 314 304 306 284 289 305 310 320 335 335 327 332 330 320 324 314 283 263 196 311 174 191 184 204 111 163 182 180 182 182 181
336 335 336 335 328 323 317 314 309 304 290 282 289 310 316 341 334 327 333 337 333 347 316 191 116 342 359 165 159 142 176 190 146 167 177 182 184 183
341 341 339 332 325 334 321 315 311 297 284 277 288 297 299 317 318 326 339 348 353 47 83 130 129 72 342 229 132 134 151 149 152 163 166 182 186 186
347 347 342 336 333 329 323 319 314 302 277 275 284 298 301 322 333 320 317 321 344 10 65 101 108 115 268 91 163 144 175 156 171 177 173 181 184 188
348 349 345 342 339 334 335 325 310 293 286 272 284 270 270 289 295 306 315 341 327 34 72 91 106 119 88 139 173 161 165 174 179 189 184 181 183 188
346 346 343 342 348 342 341 338 331 295 267 267 263 257 270 289 297 304 285 312 318 344 63 77 83 88 114 129 156 165 177 179 184 184 171 179 184 185
349 348 349 347 350 343 342 344 345 334 295 267 260 269 270 280 268 270 276 297 313 340 124 91 112 94 97 114 119 182 184 183 180 184 169 179 186 184
346 351 349 351 349 349 349 348 345 346 331 288 262 263 261 253 246 231 242 254 280 8 91 100 109 97 90 87 140 163 182 174 179 185 178 159 190 187
350 351 354 353 352 357 359 357 338 341 341 341 284 242 223 210 208 220 215 212 298 61 133 98 134 120 85 78 130 166 174 167 181 181 179 183 167 187
350 347 351 354 360 7 14 8 360 6 24 46 75 121 163 179 198 210 208 208 233 281 162 120 134 101 80 112 84 143 166 165 173 183 181 181 176 179
354 354 358 6 21 30 29 26 34 38 41 48 57 82 110 129 137 150 173 189 220 203 160 142 131 128 129 105 110 118 156 164 175 179 178 182 181 188
13 12 26 29 32 36 40 41 41 37 36 34 40 65 87 110 119 115 125 134 127 124 146 165 136 132 137 127 126 126 126 141 170 173 171 180 181 178
26 30 32 33 34 36 37 39 39 37 32 35 44 70 94 103 107 116 112 106 92 87 97 117 127 134 119 123 133 116 126 132 155 170 171 174 171 182
30 30 28 27 22 24 28 33 37 39 36 42 45 56 71 83 89 106 100 93 87 85 84 97 107 119 114 119 100 118 122 135 151 157 165 155 156 167
34 19 14 14 11 9 10 16 29 32 35 44 46 52 54 70 83 89 93 85 78 80 87 101 108 103 93 75 98 104 128 135 144 151 153 143 123 140
29 19 13 12 10 13 15 18 19 34 45 41 41 50 58 68 76 77 76 76 68 72 72 86 99 115 101 95 58 85 121 134 139 136 142 142 123 126
29 20 14 16 18 18 22 25 31 39 46 48 44 49 57 56 61 67 71 69 68 65 65 75 83 86 91 106 100 62 118 134 135 122 117 118 112 109
25 26 26 26 26 28 29 31 34 38 44 49 51 53 60 66 70 73 73 78 74 72 70 64 80 99 101 105 89 71 78 102 119 124 122 110 108 101
26 27 28 30 29 28 30 33 34 36 39 45 53 55 60 66 76 72 72 75 73 76 81 90 98 99 90 96 98 94 83 90 93 100 105 125 144 129
23 26 27 29 29 29 29 31 34 34 36 42 47 55 65 71 83 82 79 80 81 82 85 85 87 90 83 89 95 95 91 85 87 82 79 87 115 124